{"data":{"norad_id":56304,"epoch":"2026-05-25T00:05:11.111712Z","epoch_age_seconds":81635,"freshness":"FRESH","line1":"1 56304U 23056U   26145.00360083  .00002633  00000+0  10517-3 0  9992","line2":"2 56304  43.0016 137.6424 0001162 279.3183  80.7537 15.27582969171771","mean_motion":15.27582969,"eccentricity":0.0001162,"inclination_deg":43.0016,"raan_deg":137.6424,"arg_perigee_deg":279.3183,"mean_anomaly_deg":80.7537,"bstar":0.00010517,"rev_number":17177,"period_min":94.266565497432,"perigee_km":482.24293700865,"apogee_km":483.83747459127,"semimajor_km":6861.1772058,"source":"CELESTRAK","updated_at":"2026-05-25T13:38:17.997557Z"}}